Location: Kumla
(59.1265°N, 15.1401°E)
Time: 23:39:34
(UTC+01:00)

Vanguard 1 - Pass Details

Date: 09 December 2023
Orbit: 653 x 3825 km, 34.3° (Epoch: 04 March)

Event Time Altitude Azimuth Distance (km) Brightness Sun altitude
Rises 21:33:22 0° 262° (W) 6,690 14.7 -46.3°
Reaches altitude 10° 21:38:36 10° 251° (WSW) 6,088 14.3 -46.8°
Maximum altitude 21:53:08 26° 205° (SSW) 5,566 13.6 -48.1°
Enters shadow 21:53:31 26° 204° (SSW) 5,576 13.6 -48.1°
